Location: Nairn
(57.5833°N, 3.8667°W)
Time: 03:06:56
(UTC+00:00)

Transit 2A - Pass Details

Date: 05 December 2020
Orbit: 598 x 960 km, 66.7° (Epoch: 20 January)

Event Time Altitude Azimuth Distance (km) Brightness Sun altitude
Rises 18:52:27 0° 259° (W) 3,571 10.8 -24.9°
Reaches altitude 10° 18:55:12 10° 266° (W) 2,590 9.8 -25.3°
Maximum altitude 19:00:54 43° 337° (NNW) 1,195 7.1 -26.1°
Enters shadow 19:02:17 36° 11° (NNE) 1,298 7.0 -26.3°
